Darstellungsparameter: Aktuell verwendete Einstellungen:
Skalierung der Graphiken ... ?
xyx+y,   Skalierungsfaktor:      Skalierung: Modus: x, Faktor: 1
Darstellungszeitraum ... ?
Vom - - bis: - -   Zeitraum: 07.06.2010 - 07.06.2010
Min/Max/Avg-Anzeige ... ?
Zeige MMA aktuell
Zeige MMA Monat
Zeige MMA alles
Zeige --A aktuell
Zeige --A Monat
Zeige --A alles
Keine MMA-Anzeige
MMA:
Minimum Maximum Average (ber die Originaldaten)
MMA-Basis: 07.06.2010 - 07.06.2010
Quicknavigation für Darstellung... ?
Tage:      1T, 2T, 3T, 5T -1T -2T -3T -5T +1T +2T +3T +5T
Wochen: 1W, 2W, 3W -1W -2W -3W +1W +2W +3W
Monate: 1M, 3M, 6M -1M -3M -6M +1M +3M +6M
Jahre:    1J, 3J, 5J, 10J -1J -3J -5J -10J +1J +3J +5J +10J
Nutze für die Darstellung ... ?
Originaldaten oder Mittelwerte auf ...
Stundenbasis Tagesbasis Wochenbasis
Monatsbasis Jahresbasis      Datenbasis: Original-Daten
Darstellen als:
Statistik (Auto) Statistik J:M      Darstellung:
Zur Graphik,    zurück zur Übersicht aller Sensoren.
 
Tabellarische Datenbersicht: ?
 
Sensor: Nr:Datum:Temp:Abs-Feuchte:Windchill:Wind:
Aussen-T/F 1 07-06-2010 00:04:02 17.7 C 13.28 g/m*3 17.7 C 0 km/h
2 07-06-2010 00:16:02 17.9 C 13.44 g/m*3 17.9 C 0 km/h
3 07-06-2010 00:28:02 18 C 13.52 g/m*3 18 C 0 km/h
4 07-06-2010 00:40:02 18 C 13.52 g/m*3 18 C 0 km/h
5 07-06-2010 00:52:02 18 C 13.52 g/m*3 18 C 0 km/h
6 07-06-2010 01:04:02 17.9 C 13.74 g/m*3 17.9 C 0 km/h
7 07-06-2010 01:16:02 17.9 C 13.74 g/m*3 17.9 C 0 km/h
8 07-06-2010 01:28:02 17.8 C 13.81 g/m*3 17.8 C 0 km/h
9 07-06-2010 01:40:02 17.7 C 13.73 g/m*3 17.7 C 0 km/h
10 07-06-2010 01:52:02 17.8 C 13.81 g/m*3 17.8 C 0 km/h
11 07-06-2010 02:04:03 17.9 C 13.89 g/m*3 17.9 C 0 km/h
12 07-06-2010 02:16:03 17.9 C 13.89 g/m*3 17.9 C 0 km/h
13 07-06-2010 02:28:03 17.6 C 13.05 g/m*3 17.6 C 0 km/h
14 07-06-2010 02:40:03 17 C 10.85 g/m*3 17 C 0 km/h
15 07-06-2010 02:52:03 16.4 C 10.89 g/m*3 16.4 C 0 km/h
16 07-06-2010 03:04:03 16.2 C 10.62 g/m*3 16.2 C 0 km/h
17 07-06-2010 03:16:03 15.8 C 10.23 g/m*3 15.8 C 0 km/h
18 07-06-2010 03:28:03 15.3 C 10.06 g/m*3 15.3 C 0 km/h
19 07-06-2010 03:40:03 15 C 10 g/m*3 15 C 0 km/h
20 07-06-2010 03:52:03 15 C 9.49 g/m*3 15 C 0 km/h
21 07-06-2010 04:04:03 14.8 C 9.12 g/m*3 14.8 C 0 km/h
22 07-06-2010 04:16:03 14.4 C 9.02 g/m*3 14.4 C 0 km/h
23 07-06-2010 04:28:03 13.9 C 9.11 g/m*3 13.9 C 0 km/h
24 07-06-2010 04:40:03 13.5 C 9.01 g/m*3 13.5 C 0 km/h
25 07-06-2010 04:52:03 13.4 C 9.18 g/m*3 13.4 C 0 km/h
Sensor: Nr:Datum:Temp:Abs-Feuchte:Windchill:Wind:
Aussen-T/F 26 07-06-2010 05:04:03 13.6 C 9.18 g/m*3 13.6 C 0 km/h
27 07-06-2010 05:16:03 13.6 C 9.06 g/m*3 13.6 C 0 km/h
28 07-06-2010 05:28:03 13.6 C 9.06 g/m*3 13.6 C 0 km/h
29 07-06-2010 05:40:03 13.7 C 9.24 g/m*3 13.7 C 0 km/h
30 07-06-2010 05:52:03 13.5 C 9.24 g/m*3 13.5 C 0 km/h
31 07-06-2010 06:04:04 13.7 C 9.47 g/m*3 13.7 C 0 km/h
32 07-06-2010 06:16:04 14.1 C 9.59 g/m*3 14.1 C 0 km/h
33 07-06-2010 06:28:04 14.5 C 9.33 g/m*3 14.5 C 0 km/h
34 07-06-2010 06:40:04 14.8 C 9.12 g/m*3 14.8 C 0 km/h
35 07-06-2010 06:52:04 14.9 C 9.3 g/m*3 14.9 C 0 km/h
36 07-06-2010 07:04:02 15.1 C 9.03 g/m*3 15.1 C 0 km/h
37 07-06-2010 07:16:02 15.3 C 9.14 g/m*3 15.3 C 0 km/h
38 07-06-2010 07:28:02 15 C 8.98 g/m*3 15 C 0 km/h
39 07-06-2010 07:40:18 14.9 C 9.3 g/m*3 14.9 C 0 km/h
40 07-06-2010 07:52:01 14.9 C 9.43 g/m*3 14.9 C 0 km/h
41 07-06-2010 08:04:02 15.2 C 9.35 g/m*3 15.2 C 0 km/h
42 07-06-2010 08:16:02 15.4 C 9.33 g/m*3 15.4 C 0 km/h
43 07-06-2010 08:28:02 15.6 C 9.31 g/m*3 15.6 C 0 km/h
44 07-06-2010 08:40:01 15.7 C 9.37 g/m*3 15.7 C 0 km/h
45 07-06-2010 08:52:03 15.8 C 9.29 g/m*3 15.8 C 0 km/h
46 07-06-2010 09:04:02 16.5 C 9.55 g/m*3 16.5 C 0 km/h
47 07-06-2010 09:16:02 17.2 C 9.23 g/m*3 17.2 C 0 km/h
48 07-06-2010 09:28:03 17.2 C 9.23 g/m*3 17.2 C 0 km/h
49 07-06-2010 09:40:02 17 C 8.97 g/m*3 17 C 0 km/h
50 07-06-2010 09:52:02 17.5 C 9.09 g/m*3 17.5 C 0 km/h
Sensor: Nr:Datum:Temp:Abs-Feuchte:Windchill:Wind:
Aussen-T/F 51 07-06-2010 10:04:01 17.6 C 9.15 g/m*3 17.6 C 0 km/h
52 07-06-2010 10:16:02 18.1 C 8.96 g/m*3 18.1 C 0 km/h
53 07-06-2010 10:28:02 18.3 C 8.76 g/m*3 18.3 C 0 km/h
54 07-06-2010 10:40:02 18.7 C 8.81 g/m*3 18.7 C 0 km/h
55 07-06-2010 10:52:01 18.9 C 9.07 g/m*3 18.9 C 0 km/h
56 07-06-2010 11:04:02 19.5 C 8.89 g/m*3 19.5 C 0 km/h
57 07-06-2010 11:16:01 19.3 C 8.79 g/m*3 19.3 C 0 km/h
58 07-06-2010 11:28:01 19.1 C 8.69 g/m*3 19.1 C 0 km/h
59 07-06-2010 11:40:01 19.5 C 8.73 g/m*3 19.5 C 0 km/h
60 07-06-2010 11:52:02 19.9 C 8.42 g/m*3 19.9 C 0 km/h
61 07-06-2010 12:04:02 20.7 C 8.1 g/m*3 20.7 C 0 km/h
62 07-06-2010 12:16:01 21.6 C 7.97 g/m*3 21.6 C 0 km/h
63 07-06-2010 12:28:01 21.9 C 7.91 g/m*3 21.9 C 0 km/h
64 07-06-2010 12:40:02 22.4 C 7.94 g/m*3 22.4 C 0 km/h
65 07-06-2010 12:52:02 23.1 C 7.65 g/m*3 23.1 C 0 km/h
66 07-06-2010 13:04:02 23.1 C 7.23 g/m*3 23.1 C 0 km/h
67 07-06-2010 13:16:01 24.3 C 7.3 g/m*3 24.3 C 0 km/h
68 07-06-2010 13:28:01 24.3 C 7.75 g/m*3 24.3 C 0 km/h
69 07-06-2010 13:40:02 23.4 C 6.73 g/m*3 23.4 C 0 km/h
70 07-06-2010 13:52:01 23.8 C 7.31 g/m*3 23.8 C 0 km/h
71 07-06-2010 14:04:02 23.9 C 6.92 g/m*3 23.9 C 0 km/h
72 07-06-2010 14:16:02 23.7 C 7.27 g/m*3 23.7 C 0 km/h
73 07-06-2010 14:28:02 24.1 C 6.78 g/m*3 24.1 C 0 km/h
74 07-06-2010 14:40:02 24.1 C 7 g/m*3 24.1 C 0 km/h
75 07-06-2010 14:52:02 24.2 C 6.82 g/m*3 24.2 C 0 km/h
Sensor: Nr:Datum:Temp:Abs-Feuchte:Windchill:Wind:
Aussen-T/F 76 07-06-2010 15:04:01 24.4 C 6.68 g/m*3 24.4 C 0 km/h
77 07-06-2010 15:16:02 24 C 6.74 g/m*3 24 C 0 km/h
78 07-06-2010 15:28:02 24.7 C 6.79 g/m*3 24.7 C 0 km/h
79 07-06-2010 15:40:01 24.7 C 6.34 g/m*3 24.7 C 0 km/h
80 07-06-2010 15:52:02 23.7 C 6.63 g/m*3 23.7 C 0 km/h
81 07-06-2010 16:04:01 24.8 C 6.6 g/m*3 24.8 C 0 km/h
82 07-06-2010 16:16:01 25.3 C 6.55 g/m*3 25.3 C 0 km/h
83 07-06-2010 16:28:01 25.6 C 6.43 g/m*3 25.6 C 0 km/h
84 07-06-2010 16:40:02 25.1 C 6.02 g/m*3 25.1 C 0 km/h
85 07-06-2010 16:52:02 25.3 C 6.32 g/m*3 25.3 C 0 km/h
86 07-06-2010 17:04:01 24.5 C 6.04 g/m*3 24.5 C 0 km/h
87 07-06-2010 17:16:02 24.8 C 6.15 g/m*3 24.8 C 0 km/h
88 07-06-2010 17:28:02 24.3 C 5.97 g/m*3 24.3 C 0 km/h
89 07-06-2010 17:40:02 24.9 C 5.95 g/m*3 24.9 C 0 km/h
90 07-06-2010 17:52:02 24.8 C 5.69 g/m*3 24.8 C 0 km/h
91 07-06-2010 18:04:03 24.5 C 5.6 g/m*3 24.5 C 0 km/h
92 07-06-2010 18:16:02 26.2 C 5.42 g/m*3 26.2 C 0 km/h
93 07-06-2010 18:28:02 25.6 C 5 g/m*3 25.6 C 0 km/h
94 07-06-2010 18:40:02 26.9 C 5.37 g/m*3 26.9 C 0 km/h
95 07-06-2010 18:52:01 26.4 C 4.98 g/m*3 26.4 C 0 km/h
96 07-06-2010 19:04:02 26.6 C 5.29 g/m*3 26.6 C 0 km/h
97 07-06-2010 19:16:01 26 C 5.11 g/m*3 26 C 0 km/h
98 07-06-2010 19:28:01 25.5 C 5.21 g/m*3 25.5 C 0 km/h
99 07-06-2010 19:40:01 25.2 C 5.35 g/m*3 25.2 C 0 km/h
100 07-06-2010 19:52:01 23.9 C 5.41 g/m*3 23.9 C 0 km/h
Sensor: Nr:Datum:Temp:Abs-Feuchte:Windchill:Wind:
Aussen-T/F 101 07-06-2010 20:04:01 24.1 C 5.47 g/m*3 24.1 C 0 km/h
102 07-06-2010 20:16:02 24.1 C 5.69 g/m*3 24.1 C 0 km/h
103 07-06-2010 20:28:02 23.1 C 5.79 g/m*3 23.1 C 0 km/h
104 07-06-2010 20:40:01 22.3 C 6.12 g/m*3 22.3 C 0 km/h
105 07-06-2010 20:52:01 21.8 C 6.72 g/m*3 21.8 C 0 km/h
106 07-06-2010 21:04:01 21 C 6.41 g/m*3 21 C 0 km/h
107 07-06-2010 21:16:02 20.4 C 6.72 g/m*3 20.4 C 0 km/h
108 07-06-2010 21:28:02 19.9 C 6.87 g/m*3 19.9 C 0 km/h
109 07-06-2010 21:40:01 19.4 C 6.84 g/m*3 19.4 C 0 km/h
110 07-06-2010 21:52:03 19.5 C 7.05 g/m*3 19.5 C 0 km/h
111 07-06-2010 22:04:03 18.9 C 6.97 g/m*3 18.9 C 0 km/h
112 07-06-2010 22:16:02 18.8 C 7.25 g/m*3 18.8 C 0 km/h
113 07-06-2010 22:28:02 18.5 C 7.28 g/m*3 18.5 C 0 km/h
114 07-06-2010 22:40:03 18.3 C 7.35 g/m*3 18.3 C 0 km/h
115 07-06-2010 22:53:02 17.9 C 7.79 g/m*3 17.9 C 0 km/h
116 07-06-2010 23:05:02 17.9 C 7.94 g/m*3 17.9 C 0 km/h
117 07-06-2010 23:17:03 17.4 C 7.85 g/m*3 17.4 C 0 km/h
118 07-06-2010 23:29:03 17 C 7.81 g/m*3 17 C 0 km/h
119 07-06-2010 23:41:03 17 C 8.39 g/m*3 17 C 0 km/h
120 07-06-2010 23:53:03 17 C 8.39 g/m*3 17 C 0 km/h

Legende:
   Min
   Max


Maximal/Minimal-Werte vom 07.06.2010 - 07.06.2010

Sensor Min Max Avg
Temp
(Aussen-T/F)
13.4 °C
07-06-2010  04:52:03
26.9 °C
07-06-2010  18:40:02
19.59 °C
Abs-Feuchte
(Aussen-T/F)
4.98 g/m*3
07-06-2010  18:52:01
13.89 g/m*3
07-06-2010  02:04:03
8.37 g/m*3
Windchill
(Aussen-T/F)
13.4 C
07-06-2010  04:52:03
26.9 C
07-06-2010  18:40:02
19.43 C

Die Daten stammen von einer Davis Vantage Pro 2 Wetter-Station und werden unter Linux mit der Software wview2wettercgi und aufbereitet. Alle Angaben erfolgen ohne Gewähr für ihre Vollständigkeit oder Richtigkeit.
Kontakt: Rainer Krienke krienke@uni-koblenz.de . Meine Webseiten an der Uni Koblenz oder privat.
Version: $Revision: 0.78 $